sat.trackr.live / text

‹ back to catalog

STARLINK-36808

NORAD 67881 · 2026-035C

PAYLOAD ACTIVE UNKNOWN

§ Identity

Operator
Country
US
Launch date
2026-02-21
Launch site
AFWTR
Launch vehicle
Mass (kg)
RCS (m²)

Purposes: comms

External: N2YO · Heavens-Above · Gunter

§ Orbital elements

Epoch: 2026-05-25T01:16:39.312192Z

Period
93.91 min
Inclination
97.2828°
Eccentricity
0.0001531
Mean motion
15.33452415 rev/d
Perigee alt
464.5 km
Apogee alt
466.6 km
Semi-major
6,843.7 km
B*
4.5011e-4
RAAN
78.6216°
Arg perigee
102.0984°
Mean anomaly
258.0431°
Rev number
1,569

§ Raw data

STARLINK-368081 67881U 26035C   26145.05323278  .00014488  00000+0  45011-3 0  99922 67881  97.2828  78.6216 0001531 102.0984 258.0431 15.33452415 15699

JSON: /api/v1/satellites/67881 · /tle

For live sub-satellite position, see the globe view (requires WebGL).

§ Visibility from observer

Set your observer location to see the next 7 days of passes ≥ 10°. The values pass through the URL so the page stays shareable.

No JS? Fill the form by hand. The geolocation button needs JavaScript.